| time (UTC) | temp C | wind direction | speed KPH | gust KPH | rain 1hr cm | rain 24hr cm | rain mn cm | humidity % | barometer mb |
| 20260506033030 | 4 | 251 | 1.6 | 4.8 | 0.00 | 0.10 | 0.10 | 92 | 998.4 |
| 20260506031530 | 5 | 251 | 3.2 | 9.7 | 0.00 | 0.10 | 0.10 | 91 | 998.1 |
| 20260506030038 | 5 | 231 | 3.2 | 8.0 | 0.00 | 0.10 | 0.10 | 91 | 998.0 |
| 20260506024553 | 5 | 254 | 3.2 | 6.4 | 0.00 | 0.10 | 0.10 | 91 | 997.7 |
| 20260506023029 | 5 | 109 | 1.6 | 3.2 | 0.00 | 0.10 | 0.10 | 90 | 997.6 |
| 20260506021529 | 5 | 109 | 0.0 | 1.6 | 0.00 | 0.10 | 0.10 | 90 | 997.2 |
| 20260506020028 | 5 | 109 | 3.2 | 6.4 | 0.00 | 0.10 | 0.10 | 90 | 997.1 |
| 20260506014527 | 5 | 109 | 4.8 | 12.9 | 0.00 | 0.10 | 0.10 | 90 | 996.6 |
| 20260506013038 | 5 | 119 | 3.2 | 8.0 | 0.00 | 0.10 | 0.10 | 89 | 996.9 |
| 20260506011526 | 6 | 156 | 0.0 | 6.4 | 0.00 | 0.10 | 0.10 | 88 | 996.9 |
| 20260506010026 | 6 | 156 | 4.8 | 8.0 | 0.03 | 0.10 | 0.10 | 88 | 996.5 |
| 20260506004524 | 6 | 320 | 1.6 | 3.2 | 0.05 | 0.10 | 0.10 | 88 | 997.1 |
| 20260506003023 | 6 | 320 | 0.0 | 3.2 | 0.05 | 0.10 | 0.10 | 87 | 996.9 |
| 20260506001522 | 6 | 290 | 4.8 | 9.7 | 0.08 | 0.10 | 0.10 | 86 | 996.8 |
| 20260506000022 | 6 | 286 | 1.6 | 8.0 | 0.05 | 0.08 | 0.08 | 85 | 996.3 |
| 20260505234523 | 6 | 124 | 1.6 | 4.8 | 0.05 | 0.05 | 0.05 | 83 | 995.5 |
| 20260505233021 | 7 | 124 | 1.6 | 8.0 | 0.05 | 0.05 | 0.05 | 80 | 995.6 |
| 20260505231520 | 7 | 217 | 1.6 | 11.3 | 0.00 | 0.03 | 0.03 | 79 | 995.8 |
| 20260505230035 | 7 | 139 | 0.0 | 11.3 | 0.00 | 0.03 | 0.03 | 78 | 995.7 |
| 20260505224518 | 6 | 123 | 3.2 | 12.9 | 0.00 | 0.03 | 0.03 | 80 | 995.8 |
| 20260505223017 | 6 | 101 | 3.2 | 8.0 | 0.03 | 0.03 | 0.03 | 82 | 996.0 |
| 20260505221517 | 6 | 103 | 3.2 | 11.3 | 0.03 | 0.03 | 0.03 | 80 | 996.1 |
| 20260505220016 | 7 | 134 | 6.4 | 14.5 | 0.03 | 0.03 | 0.03 | 79 | 996.1 |
| 20260505214515 | 7 | 132 | 8.0 | 12.9 | 0.03 | 0.03 | 0.03 | 75 | 996.2 |
| 20260505213015 | 8 | 146 | 8.0 | 14.5 | 0.00 | 0.00 | 0.00 | 70 | 996.4 |
| 20260505211515 | 10 | 165 | 9.7 | 19.3 | 0.00 | 0.00 | 0.00 | 59 | 996.2 |
| 20260505210014 | 11 | 122 | 8.0 | 14.5 | 0.00 | 0.00 | 0.00 | 51 | 995.8 |
| 20260505204514 | 11 | 150 | 3.2 | 16.1 | 0.00 | 0.00 | 0.00 | 49 | 995.7 |
| 20260505203012 | 12 | 144 | 4.8 | 30.6 | 0.00 | 0.00 | 0.00 | 49 | 995.6 |
| 20260505201510 | 11 | 138 | 12.9 | 27.4 | 0.00 | 0.00 | 0.00 | 50 | 995.6 |
| 20260505200020 | 10 | 78 | 8.0 | 24.1 | 0.00 | 0.00 | 0.00 | 52 | 995.9 |
| 20260505194506 | 9 | 138 | 6.4 | 16.1 | 0.00 | 0.00 | 0.00 | 58 | 996.1 |
| 20260505193006 | 8 | 56 | 6.4 | 20.9 | 0.00 | 0.00 | 0.00 | 58 | 996.6 |
| 20260505191505 | 8 | 124 | 11.3 | 20.9 | 0.00 | 0.00 | 0.00 | 58 | 996.4 |
| 20260505190003 | 8 | 115 | 11.3 | 24.1 | 0.00 | 0.00 | 0.00 | 58 | 996.5 |
| 20260505184502 | 9 | 149 | 8.0 | 20.9 | 0.00 | 0.00 | 0.00 | 63 | 996.6 |
| 20260505183001 | 10 | 145 | 11.3 | 22.5 | 0.00 | 0.00 | 0.00 | 62 | 996.8 |
| 20260505181601 | 10 | 167 | 9.7 | 17.7 | 0.00 | 0.00 | 0.00 | 59 | 996.9 |
| 20260505174559 | 10 | 110 | 8.0 | 14.5 | 0.00 | 0.00 | 0.00 | 57 | 997.3 |
| 20260505173054 | 9 | 145 | 8.0 | 12.9 | 0.00 | 0.00 | 0.00 | 54 | 997.5 |
| 20260505171554 | 8 | 155 | 4.8 | 12.9 | 0.00 | 0.00 | 0.00 | 58 | 998.0 |
| 20260505170053 | 8 | 103 | 11.3 | 17.7 | 0.00 | 0.00 | 0.00 | 60 | 997.4 |
| 20260505164600 | 8 | 140 | 8.0 | 16.1 | 0.00 | 0.00 | 0.00 | 59 | 998.0 |
| 20260505163056 | 9 | 155 | 6.4 | 16.1 | 0.00 | 0.00 | 0.00 | 58 | 997.9 |
| 20260505161550 | 10 | 142 | 4.8 | 12.9 | 0.00 | 0.00 | 0.00 | 52 | 998.0 |
| 20260505153105 | 10 | 171 | 9.7 | 17.7 | 0.00 | 0.00 | 0.00 | 54 | 998.2 |
| 20260505151555 | 11 | 160 | 8.0 | 14.5 | 0.00 | 0.00 | 0.00 | 51 | 998.2 |
| 20260505124528 | 6 | 207 | 8.0 | 16.1 | 0.00 | 0.00 | 0.00 | 73 | 1000.3 |
| 20260505123025 | 6 | 216 | 9.7 | 17.7 | 0.00 | 0.00 | 0.00 | 72 | 1000.4 |
| 20260505121525 | 6 | 200 | 6.4 | 17.7 | 0.00 | 0.00 | 0.00 | 71 | 1000.2 |
| 20260505120023 | 7 | 217 | 6.4 | 12.9 | 0.00 | 0.00 | 0.00 | 67 | 1000.2 |
| 20260505114532 | 7 | 250 | 3.2 | 8.0 | 0.00 | 0.00 | 0.00 | 66 | 1000.3 |
| 20260505113017 | 6 | 296 | 1.6 | 4.8 | 0.00 | 0.00 | 0.00 | 72 | 1000.4 |
| 20260505111514 | 5 | 296 | 1.6 | 4.8 | 0.00 | 0.00 | 0.00 | 74 | 1000.5 |
| 20260505101510 | 4 | 67 | 0.0 | 4.8 | 0.00 | 0.00 | 0.00 | 78 | 1000.2 |
| 20260505100012 | 4 | 327 | 1.6 | 9.7 | 0.00 | 0.00 | 0.00 | 78 | 1000.0 |
| 20260505094509 | 3 | 19 | 6.4 | 14.5 | 0.00 | 0.00 | 0.00 | 82 | 1000.2 |
| 20260505093008 | 3 | 293 | 3.2 | 8.0 | 0.00 | 0.00 | 0.00 | 81 | 1000.0 |
| 20260505091507 | 3 | 302 | 1.6 | 8.0 | 0.00 | 0.00 | 0.00 | 79 | 999.9 |
| 20260505090007 | 3 | 323 | 1.6 | 8.0 | 0.00 | 0.00 | 0.00 | 81 | 999.5 |
| 20260505084506 | 3 | 336 | 3.2 | 6.4 | 0.00 | 0.00 | 0.00 | 82 | 999.4 |
| 20260505083005 | 3 | 304 | 4.8 | 12.9 | 0.00 | 0.00 | 0.00 | 82 | 999.6 |
| 20260505081502 | 3 | 300 | 11.3 | 20.9 | 0.00 | 0.00 | 0.00 | 79 | 1000.0 |
| 20260505080059 | 4 | 259 | 11.3 | 24.1 | 0.00 | 0.00 | 0.00 | 79 | 999.6 |
| 20260505074610 | 4 | 247 | 8.0 | 22.5 | 0.00 | 0.00 | 0.00 | 78 | 999.4 |
| 20260505073055 | 4 | 281 | 12.9 | 24.1 | 0.00 | 0.00 | 0.00 | 76 | 999.2 |
| 20260505071551 | 4 | 309 | 16.1 | 27.4 | 0.00 | 0.00 | 0.00 | 77 | 999.1 |
| 20260505070048 | 4 | 298 | 16.1 | 29.0 | 0.00 | 0.00 | 0.00 | 77 | 998.8 |
| 20260505064546 | 4 | 271 | 11.3 | 24.1 | 0.00 | 0.00 | 0.00 | 77 | 998.9 |
| 20260505063045 | 4 | 282 | 11.3 | 20.9 | 0.00 | 0.00 | 0.00 | 77 | 998.8 |
| 20260505061609 | 5 | 265 | 11.3 | 20.9 | 0.00 | 0.00 | 0.00 | 76 | 998.8 |
| 20260505060046 | 4 | 275 | 12.9 | 22.5 | 0.00 | 0.00 | 0.00 | 77 | 998.6 |
| 20260505054554 | 4 | 250 | 11.3 | 24.1 | 0.00 | 0.00 | 0.00 | 77 | 998.4 |
| 20260505053037 | 5 | 286 | 9.7 | 19.3 | 0.00 | 0.00 | 0.00 | 76 | 998.3 |
| 20260505051536 | 5 | 275 | 11.3 | 22.5 | 0.00 | 0.00 | 0.00 | 76 | 998.3 |
| 20260505041526 | 5 | 287 | 9.7 | 20.9 | 0.00 | 0.05 | 0.00 | 78 | 998.0 |
| 20260505040023 | 5 | 282 | 4.8 | 11.3 | 0.00 | 0.05 | 0.00 | 76 | 997.9 |
| 20260505034522 | 5 | 292 | 6.4 | 14.5 | 0.00 | 0.10 | 0.05 | 77 | 997.7 |